Regional Weather Roundup
Issued by NWS Jackson, KY

Home | Current Version | Previous Version | Text Only | Print | Product List | Glossary On
Versions: 1 2 3 4 5 6 7 8 9 10 11 12 13 14 15 16 17 18 19 20 21 22 23 24 25 26 27 28 29 30 31 32 33 34 35 36 37 38 39 40 41 42 43 44 45 46 47 48 49 50
000
ASUS43 KJKL 241010
RWRJKL

EAST KENTUCKY HOURLY WEATHER ROUNDUP
NATIONAL WEATHER SERVICE JACKSON KY
600 AM EDT SAT JUN 24 2017

NOTE: "FAIR" INDICATES FEW OR NO CLOUDS BELOW 12,000 FEET WITH
NO SIGNIFICANT WEATHER AND/OR OBSTRUCTIONS TO VISIBILITY.

* THESE REPORTS ARE NOT UNDER NWS QUALITY CONTROL AND MAY NOT
  REPORT WEATHER SUCH AS PRECIPITATION AND FOG.

KYZ079-080-083-085-087-088-110-112-115-119-120-241100
...EASTERN KENTUCKY...

CITY           SKY/WX    TMP DP  RH WIND       PRES   REMARKS
JACKSON        CLOUDY    66  65  96 CALM      29.94R FOG
LONDON         MOCLDY    68  66  93 CALM      29.94R
SOMERSET*      CLOUDY    68  68 100 N3        29.94R
MONTICELLO*    CLOUDY    71  69  93 CALM      29.96R
WILLIAMSBURG*  CLOUDY    68  68 100 CALM      29.94R
MIDDLESBORO*   LGT RAIN  67  67 100 CALM      29.95S
HARLAN APT*    CLOUDY    64  63  94 CALM      29.96R
PIKE CO APT*   CLOUDY    64  64 100 CALM      29.94R FOG
BIG SANDY APT* CLOUDY    65  65 100 CALM      29.93R
MOREHEAD APT*  PTSUNNY   66  64  94 CALM      29.94R FOG
$$

KYZ035-036-041-042-044-050-067-078-099-241100
...CENTRAL KENTUCKY...

CITY           SKY/WX    TMP DP  RH WIND       PRES   REMARKS
MT STERLING*   CLOUDY    64  64 100 CALM      29.95R FOG
DANVILLE*      MOCLDY    64  64 100 CALM      29.95R
LEXINGTON      FOG       65  63  93 SW3       29.94R VSB 1/4
FRANKFORT      FOG       64  61  90 SW3       29.91R VSB 1/4
LOUISVILLE     PTCLDY    66  64  93 NW3       29.93R
LEBANON*         N/A    N/A N/A N/A MISG        N/A
GLASGOW*       MOCLDY   N/A N/A N/A CALM      29.96R FOG
BOWLING GREEN  CLEAR     68  68 100 CALM      29.95R
$$

KYZ091>093-OHZ055-061-077-WVZ005-015-034-035-042-241100
...SOUTHERN OHIO/WEST VIRGINIA...

CITY           SKY/WX    TMP DP  RH WIND       PRES   REMARKS
COVINGTON      PTCLDY    62  62 100 W5        29.91R
COLUMBUS       PTCLDY    62  62 100 S3        29.86R
DAYTON         PTCLDY    62  59  90 W12       29.89R
WILMINGTON     CLEAR     61  61 100 SW6       29.89R FOG
HUNTINGTON     MOCLDY    66  64  93 S6        29.90R
CHARLESTON     MOCLDY    66  64  93 SW8       29.91R
PINEVILLE*     CLOUDY    64  63  96 MISG      30.00R
BECKLEY        CLOUDY    62  60  93 W6        29.96R
BLUEFIELD      CLOUDY    60  59  96 W7        29.99R
LOGAN CO APT*  CLOUDY    64  63  94 CALM      29.95R
$$

VAZ002-007-008-TNZ017-027-036-066-071-241100
...SOUTHWEST VIRGINIA/EAST TENNESSEE...

CITY           SKY/WX    TMP DP  RH WIND       PRES   REMARKS
WISE*          MOCLDY    61  61 100 CALM      30.00S
JONESVILLE*      N/A    N/A N/A N/A MISG        N/A
ABINGDON*      CLOUDY    66  66 100 W3        29.98S
BRISTOL        MOCLDY    66  65  96 CALM      29.97R
MORRISTOWN*    CLOUDY    68  68 100 CALM      29.94R
SEVIERVILLE*   PTSUNNY   70  70 100 CALM      29.92S
KNOXVILLE      CLOUDY    73  70  90 SW10      29.93R
LAFOLLETTE*    CLOUDY    70  68  94 CALM      29.97R FOG
OAK RIDGE      LGT RAIN  73  71  93 VRB5      29.94R
CROSSVILLE     CLOUDY    71  70  96 W7        29.98R
NASHVILLE      MOCLDY    72  66  81 NW5       29.96R
$$

...KEY TO REMARKS...
VSB - VISIBILITY IN MILES
WCI - WIND CHILL INDEX
HX  - HEAT INDEX

$$



USA.gov is the U.S. government's official web portal to all federal, state and local government web resources and services.